TimeCST,TemperatureF,Dew PointF,Humidity,Sea Level PressureIn,VisibilityMPH,Wind Direction,Wind SpeedMPH,Gust SpeedMPH,PrecipitationIn,Events,Conditions,WindDirDegrees,DateUTC
12:53 AM,28.9,26.1,89,30.17,10.0,North,11.5,-,N/A,,Clear,10,2013-03-08 06:53:00
1:53 AM,28.9,25.0,85,30.17,10.0,North,13.8,-,N/A,,Partly Cloudy,360,2013-03-08 07:53:00
2:53 AM,27.0,25.0,92,30.18,10.0,ENE,3.5,-,N/A,,Clear,70,2013-03-08 08:53:00
3:53 AM,26.1,24.1,92,30.17,10.0,East,4.6,-,N/A,,Clear,90,2013-03-08 09:53:00
4:53 AM,24.1,21.9,91,30.16,10.0,ENE,5.8,-,N/A,,Clear,70,2013-03-08 10:53:00
5:53 AM,23.0,21.0,92,30.18,10.0,ENE,4.6,-,N/A,,Clear,70,2013-03-08 11:53:00
6:53 AM,21.9,19.9,92,30.19,10.0,East,3.5,-,N/A,,Clear,100,2013-03-08 12:53:00
7:53 AM,24.1,21.0,88,30.19,10.0,ENE,4.6,-,N/A,,Clear,60,2013-03-08 13:53:00
8:37 AM,26.6,24.8,93,30.12,10.0,ENE,9.2,-,N/A,,Partly Cloudy,60,2013-03-08 14:37:00
8:53 AM,27.0,25.0,92,30.19,10.0,ENE,9.2,-,N/A,,Mostly Cloudy,60,2013-03-08 14:53:00
9:37 AM,26.6,24.8,93,30.11,10.0,NE,12.7,-,N/A,,Overcast,50,2013-03-08 15:37:00
9:53 AM,27.0,25.0,92,30.17,10.0,NE,13.8,-,N/A,,Overcast,50,2013-03-08 15:53:00
10:53 AM,28.9,27.0,92,30.17,10.0,ENE,8.1,-,N/A,,Overcast,60,2013-03-08 16:53:00
11:53 AM,28.9,27.0,92,30.17,10.0,ENE,4.6,-,N/A,,Overcast,70,2013-03-08 17:53:00
12:53 PM,30.9,27.0,85,30.14,10.0,NE,9.2,-,N/A,,Overcast,50,2013-03-08 18:53:00
1:41 PM,32.0,28.4,87,30.05,10.0,ENE,11.5,-,N/A,,Overcast,60,2013-03-08 19:41:00
1:53 PM,32.0,28.0,85,30.10,10.0,ENE,12.7,-,N/A,,Overcast,70,2013-03-08 19:53:00
2:53 PM,30.9,27.0,85,30.06,10.0,NE,13.8,-,N/A,,Overcast,50,2013-03-08 20:53:00
3:53 PM,30.0,27.0,88,30.04,10.0,ENE,17.3,21.9,N/A,,Overcast,70,2013-03-08 21:53:00
4:13 PM,30.2,26.6,86,29.97,10.0,ENE,17.3,-,N/A,,Overcast,60,2013-03-08 22:13:00
4:53 PM,30.0,27.0,88,30.02,10.0,ENE,18.4,23.0,N/A,,Overcast,60,2013-03-08 22:53:00
5:53 PM,30.0,27.0,88,30.02,10.0,East,13.8,-,N/A,,Overcast,80,2013-03-08 23:53:00
6:44 PM,30.2,28.4,93,29.96,10.0,East,11.5,-,N/A,,Overcast,90,2013-03-09 00:44:00
6:53 PM,30.9,28.0,89,30.02,10.0,East,11.5,-,N/A,,Overcast,80,2013-03-09 00:53:00
7:53 PM,30.9,28.0,89,30.02,10.0,East,12.7,-,N/A,,Overcast,80,2013-03-09 01:53:00
8:39 PM,30.2,28.4,93,29.94,10.0,ENE,11.5,-,N/A,,Overcast,60,2013-03-09 02:39:00
8:53 PM,30.0,28.0,92,30.00,10.0,ENE,10.4,-,N/A,,Overcast,70,2013-03-09 02:53:00
9:53 PM,30.0,28.0,92,29.98,10.0,ENE,9.2,-,N/A,,Overcast,70,2013-03-09 03:53:00
10:53 PM,30.0,28.0,92,29.96,10.0,ENE,10.4,-,N/A,,Overcast,70,2013-03-09 04:53:00
11:26 PM,30.2,28.4,93,29.89,10.0,NE,6.9,-,N/A,,Overcast,50,2013-03-09 05:26:00
11:53 PM,30.0,28.0,92,29.94,10.0,NE,8.1,-,N/A,,Overcast,40,2013-03-09 05:53:00